QPF
0.00 0.00 0.00 0.00 0.00 0.00 0.00 0.00 0.00 0.00 0.00 0.00 0.00 0.00 0.00 0.00 0.00 0.00 0.00 0.00 0.00 0.00 0.00 0.00 0.00 0.00 0.00 0.00 0.00 0.00 0.00 0.00 0.00 0.00 0.00 0.00 0.00 0.00 0.00 0.00 0.01 0.00 0.00 0.00
0.00 0.00 0.00 0.00 0.00 0.00 0.00 0.00 0.00 0.00 0.00 0.00 0.00 0.00 0.00 0.00 0.00 0.00 0.00 0.00 0.00 0.00 0.00 0.00 0.00 0.00 0.00 0.00 0.00 0.00 0.00 0.00 0.00 0.00 0.00 0.00 0.00 0.00 0.00 0.00 0.00 0.00 0.00 0.00
0.00 0.00 0.00 0.00 0.00 0.00 0.00 0.00 0.00 0.00 0.00 0.00 0.00 0.00 0.00 0.00 0.00 0.00 0.00 0.00 0.00 0.00 0.00 0.00 0.00 0.00 0.00 0.00 0.00 0.00 0.00 0.00 0.00 0.00 0.00 0.00 0.00 0.00 0.00 0.00 0.00 0.00 0.00 0.00
0.00 0.00 0.00 0.00 0.00 0.00 0.00 0.00 0.00 0.00 0.00 0.00 0.00 0.00 0.00 0.00 0.00 0.00 0.00 0.00 0.00 0.00 0.00 0.00 0.00 0.00 0.00 0.00 0.00 0.00 0.00 0.00 0.00 0.00 0.00 0.00 0.00 0.00 0.00 0.00 0.00 0.00 0.00 0.00
0.00 0.00 0.00 0.00 0.00 0.00 0.00 0.00 0.00 0.00 0.00 0.00 0.00 0.00 0.00 0.00 0.00 0.00 0.00 0.00 0.00 0.00 0.00 0.00 0.00 0.00 0.00 0.00 0.00 0.00 0.00 0.00 0.00 0.00 0.00 0.00 0.00 0.00 0.00 0.00 0.00 0.00 0.00 0.00
0.00 0.00 0.00 0.00 0.00 0.00 0.00 0.00 0.00 0.00 0.00 0.00 0.00 0.00 0.00 0.00 0.00 0.00 0.00 0.00 0.00 0.00 0.00 0.00 0.00 0.00 0.00 0.00 0.00 0.00 0.00 0.00 0.00 0.00 0.00 0.00 0.00 0.00 0.00 0.00 0.00 0.00 0.00 0.00
0.00 0.00 0.00 0.00 0.00 0.00 0.00 0.00 0.00 0.00 0.00 0.00 0.00 0.00 0.00 0.00 0.00 0.00 0.00 0.00 0.00 0.00 0.00 0.00 0.00 0.00 0.00 0.00 0.00 0.00 0.00 0.00 0.00 0.00 0.00 0.00 0.00 0.00 0.00 0.00 0.00 0.00 0.00 0.00
0.00 0.00 0.00 0.00 0.00 0.00 0.00 0.00 0.00 0.00 0.00 0.00 0.00 0.00 0.00 0.00 0.00 0.00 0.00 0.00 0.00 0.00 0.00 0.00 0.00 0.00 0.00 0.00 0.00 0.00 0.00 0.00 0.00 0.00 0.00 0.00 0.00 0.00 0.00 0.00 0.00 0.00 0.00 0.00
0.00 0.00 0.00 0.00 0.00 0.00 0.00 0.00 0.00 0.00 0.00 0.00 0.00 0.00 0.00 0.00 0.00 0.00 0.00 0.00 0.00 0.00 0.00 0.00 0.00 0.00 0.00 0.00 0.00 0.00 0.00 0.00 0.00 0.00 0.00 0.00 0.00 0.00 0.00 0.00 0.00 0.00 0.00 0.00
0.00 0.00 0.00 0.00 0.00 0.00 0.00 0.00 0.00 0.00 0.00 0.00 0.00 0.00 0.00 0.00 0.00 0.00 0.00 0.00 0.00 0.00 0.00 0.00 0.00 0.00 0.00 0.00 0.00 0.00 0.00 0.00 0.00 0.00 0.00 0.00 0.00 0.00 0.00 0.00 0.00 0.00 0.00 0.00
0.00 0.00 0.00 0.00 0.00 0.00 0.00 0.00 0.00 0.00 0.00 0.00 0.00 0.00 0.00 0.00 0.00 0.00 0.00 0.00 0.00 0.00 0.00 0.00 0.00 0.00 0.00 0.00 0.00 0.00 0.00 0.00 0.00 0.00 0.00 0.00 0.00 0.00 0.00 0.00 0.00 0.00 0.01 0.01
0.00 0.00 0.00 0.00 0.00 0.00 0.00 0.00 0.00 0.00 0.00 0.00 0.00 0.00 0.00 0.00 0.00 0.00 0.00 0.00 0.00 0.00 0.00 0.00 0.00 0.00 0.00 0.00 0.00 0.00 0.00 0.00 0.00 0.00 0.00 0.00 0.00 0.00 0.00 0.00 0.01 0.01 0.01 0.01
0.00 0.00 0.00 0.00 0.00 0.00 0.00 0.00 0.00 0.00 0.00 0.00 0.00 0.00 0.00 0.00 0.00 0.00 0.00 0.00 0.00 0.00 0.00 0.00 0.00 0.00 0.00 0.00 0.00 0.00 0.00 0.00 0.00 0.00 0.00 0.00 0.00 0.00 0.00 0.00 0.01 0.02 0.02 0.02
0.00 0.00 0.00 0.00 0.00 0.00 0.00 0.00 0.00 0.00 0.00 0.00 0.00 0.00 0.00 0.00 0.00 0.00 0.00 0.00 0.00 0.00 0.00 0.00 0.00 0.00 0.00 0.00 0.00 0.00 0.00 0.00 0.00 0.00 0.00 0.00 0.01 0.01 0.01 0.02 0.03 0.02 0.02 0.02
0.00 0.00 0.00 0.00 0.00 0.00 0.00 0.00 0.00 0.00 0.00 0.00 0.00 0.00 0.00 0.00 0.00 0.00 0.00 0.00 0.00 0.00 0.00 0.00 0.00 0.00 0.00 0.00 0.00 0.00 0.00 0.00 0.00 0.00 0.00 0.00 0.01 0.01 0.02 0.03 0.03 0.03 0.03 0.05
0.00 0.00 0.00 0.00 0.00 0.00 0.00 0.00 0.00 0.00 0.00 0.00 0.00 0.00 0.00 0.00 0.00 0.00 0.00 0.00 0.00 0.00 0.00 0.00 0.00 0.00 0.00 0.00 0.00 0.00 0.00 0.00 0.00 0.00 0.00 0.00 0.01 0.02 0.02 0.03 0.03 0.05 0.06 0.06
0.00 0.00 0.00 0.00 0.00 0.00 0.00 0.00 0.00 0.00 0.00 0.00 0.00 0.00 0.00 0.00 0.00 0.00 0.00 0.00 0.00 0.00 0.00 0.00 0.00 0.00 0.00 0.00 0.00 0.00 0.00 0.00 0.00 0.00 0.00 0.00 0.00 0.03 0.06 0.07 0.08 0.09 0.08 0.07
0.00 0.00 0.00 0.00 0.00 0.00 0.00 0.00 0.00 0.00 0.00 0.00 0.00 0.00 0.00 0.00 0.00 0.00 0.00 0.00 0.00 0.00 0.00 0.00 0.00 0.00 0.00 0.00 0.00 0.00 0.00 0.00 0.00 0.00 0.00 0.00 0.01 0.01 0.06 0.11 0.10 0.07 0.05 0.05
0.00 0.00 0.01 0.01 0.01 0.00 0.00 0.00 0.00 0.00 0.00 0.00 0.00 0.00 0.00 0.00 0.00 0.00 0.00 0.00 0.00 0.00 0.00 0.00 0.00 0.00 0.00 0.00 0.00 0.00 0.00 0.00 0.00 0.00 0.00 0.00 0.01 0.02 0.02 0.04 0.06 0.05 0.04 0.03
0.00 0.00 0.01 0.02 0.01 0.00 0.00 0.00 0.00 0.00 0.00 0.00 0.00 0.00 0.00 0.00 0.00 0.00 0.00 0.00 0.00 0.00 0.00 0.00 0.00 0.00 0.00 0.00 0.00 0.00 0.00 0.00 0.00 0.00 0.00 0.00 0.01 0.04 0.05 0.05 0.05 0.05 0.04 0.04
0.00 0.00 0.02 0.01 0.02 0.00 0.00 0.00 0.00 0.00 0.00 0.00 0.00 0.00 0.00 0.00 0.00 0.00 0.00 0.00 0.00 0.00 0.00 0.00 0.00 0.00 0.00 0.00 0.00 0.00 0.00 0.00 0.00 0.00 0.00 0.00 0.00 0.00 0.02 0.04 0.08 0.13 0.18 0.15
0.00 0.00 0.00 0.00 0.02 0.01 0.00 0.00 0.00 0.00 0.00 0.00 0.00 0.00 0.00 0.00 0.00 0.00 0.00 0.00 0.00 0.00 0.00 0.00 0.00 0.00 0.00 0.00 0.00 0.00 0.00 0.00 0.00 0.00 0.00 0.00 0.00 0.00 0.00 0.02 0.06 0.10 0.14 0.20
0.00 0.00 0.00 0.00 0.00 0.00 0.00 0.00 0.00 0.00 0.00 0.00 0.00 0.00 0.00 0.00 0.00 0.00 0.00 0.00 0.00 0.00 0.00 0.00 0.00 0.00 0.00 0.00 0.00 0.00 0.00 0.00 0.00 0.00 0.00 0.00 0.00 0.00 0.00 0.01 0.02 0.03 0.06 0.10
0.00 0.00 0.00 0.00 0.00 0.00 0.00 0.00 0.00 0.00 0.00 0.00 0.00 0.00 0.00 0.00 0.00 0.00 0.00 0.00 0.00 0.00 0.00 0.00 0.00 0.00 0.00 0.00 0.00 0.00 0.00 0.00 0.00 0.00 0.00 0.00 0.00 0.00 0.00 0.00 0.01 0.02 0.02 0.03
0.00 0.00 0.00 0.00 0.00 0.00 0.00 0.00 0.00 0.00 0.00 0.00 0.00 0.00 0.00 0.00 0.00 0.00 0.00 0.00 0.00 0.00 0.00 0.00 0.00 0.00 0.00 0.00 0.00 0.00 0.00 0.00 0.00 0.00 0.00 0.00 0.00 0.01 0.01 0.03 0.04 0.02 0.01 0.03
0.00 0.00 0.00 0.00 0.00 0.00 0.00 0.00 0.00 0.00 0.00 0.00 0.00 0.00 0.00 0.00 0.00 0.00 0.00 0.00 0.00 0.00 0.00 0.00 0.00 0.00 0.00 0.00 0.00 0.00 0.00 0.00 0.00 0.00 0.00 0.02 0.06 0.06 0.06 0.06 0.08 0.11 0.09 0.10
MSLP
1012.60 1013.07 1012.64 1012.89 1012.84 1012.74 1012.80 1012.56 1012.30 1012.19 1011.89 1011.49 1010.66 1009.55 1009.54 1008.92 1008.64 1008.69 1008.85 1009.11 1008.99 1008.62 1007.85 1007.63 1007.77 1007.92 1008.25 1008.35 1008.62 1008.56 1009.10 1009.23 1010.32 1010.94 1011.14 1011.55 1011.41 1012.31 1012.62 1012.66 1012.70 1012.87 1013.22 1013.73
1013.12 1012.35 1012.70 1012.89 1012.97 1012.80 1012.77 1012.63 1012.43 1012.40 1012.01 1011.63 1010.81 1008.94 1008.89 1008.93 1008.20 1008.18 1008.33 1008.38 1008.51 1008.41 1008.17 1007.86 1008.09 1008.04 1007.84 1007.63 1007.63 1007.75 1007.84 1008.43 1009.05 1009.42 1009.93 1010.49 1010.98 1011.14 1011.42 1011.71 1011.76 1012.07 1012.49 1012.83
1012.39 1012.60 1012.53 1012.77 1012.82 1012.70 1012.58 1012.49 1012.33 1012.56 1012.31 1011.76 1011.19 1008.77 1007.60 1008.31 1008.36 1008.22 1008.57 1008.58 1008.34 1008.23 1008.43 1008.39 1008.22 1008.13 1007.89 1007.56 1007.39 1007.43 1007.22 1007.58 1008.09 1008.88 1009.72 1010.17 1010.48 1010.60 1010.64 1010.39 1010.65 1010.85 1011.41 1011.64
1012.96 1012.82 1012.86 1012.98 1012.52 1012.76 1012.85 1012.55 1012.61 1012.71 1012.97 1012.06 1011.53 1008.68 1007.47 1007.92 1008.02 1008.36 1008.49 1008.28 1008.52 1008.62 1008.93 1009.10 1008.68 1008.22 1007.94 1007.73 1007.45 1007.11 1007.03 1007.17 1007.46 1007.92 1008.26 1008.66 1008.68 1008.85 1008.35 1009.20 1009.58 1009.91 1010.47 1010.78
1013.01 1012.96 1012.90 1012.90 1012.76 1012.91 1012.88 1012.78 1012.84 1012.89 1012.85 1012.76 1011.77 1011.27 1006.35 1007.91 1007.66 1007.89 1008.53 1008.98 1009.34 1009.41 1009.34 1009.21 1009.04 1008.64 1008.26 1007.82 1007.59 1007.16 1006.93 1006.75 1006.86 1007.08 1007.19 1007.47 1007.69 1007.20 1007.34 1007.93 1008.14 1008.51 1008.94 1009.52
1013.32 1013.41 1013.26 1013.18 1013.04 1013.02 1013.32 1013.17 1013.42 1013.50 1013.42 1012.51 1011.66 1011.39 1004.69 1007.65 1007.87 1008.72 1009.08 1009.85 1009.87 1009.96 1009.67 1009.61 1009.60 1009.23 1008.77 1008.32 1007.76 1007.25 1006.77 1006.43 1006.35 1006.54 1006.67 1006.48 1006.35 1006.26 1006.48 1006.41 1006.62 1007.02 1007.70 1008.23
1014.07 1013.88 1013.67 1013.74 1013.58 1013.37 1013.65 1013.56 1013.87 1014.25 1014.08 1012.43 1011.61 1010.99 1007.02 1007.71 1008.42 1009.33 1010.08 1010.27 1010.50 1010.32 1010.13 1009.91 1009.46 1009.14 1008.98 1008.65 1008.16 1007.78 1007.11 1006.38 1006.00 1006.03 1005.91 1005.80 1005.43 1005.42 1005.43 1005.52 1005.64 1005.87 1006.33 1006.62
1015.01 1014.80 1014.48 1014.06 1013.85 1013.59 1013.57 1013.98 1014.15 1013.95 1013.74 1013.25 1012.69 1010.16 1008.09 1008.69 1009.30 1009.89 1010.62 1010.91 1010.44 1010.09 1010.13 1009.87 1009.51 1009.50 1009.02 1008.61 1008.17 1007.90 1007.46 1006.81 1005.99 1005.50 1005.30 1004.92 1004.73 1004.53 1004.32 1004.45 1004.37 1004.51 1004.62 1004.99
1015.99 1015.81 1015.28 1014.47 1014.03 1014.08 1014.16 1014.23 1014.38 1014.79 1015.11 1014.33 1012.52 1010.32 1009.09 1008.84 1009.79 1010.55 1010.87 1010.76 1010.63 1010.38 1010.35 1009.90 1009.57 1009.19 1009.09 1008.52 1007.98 1007.74 1007.39 1006.88 1006.28 1005.47 1004.78 1004.15 1003.80 1003.55 1003.09 1003.03 1003.33 1003.38 1003.78 1004.23
1017.01 1016.66 1016.03 1015.33 1014.81 1014.69 1014.35 1014.79 1015.13 1015.63 1015.46 1014.43 1012.56 1011.25 1009.51 1009.46 1010.48 1011.11 1011.06 1010.87 1010.70 1010.45 1010.12 1009.76 1009.40 1009.14 1008.86 1008.58 1008.09 1007.56 1007.22 1006.69 1005.99 1005.31 1004.65 1003.94 1003.14 1002.50 1002.12 1002.28 1001.96 1002.37 1002.93 1003.57
1018.07 1017.56 1017.10 1016.28 1015.86 1015.89 1015.69 1015.62 1015.90 1016.08 1016.13 1015.42 1013.90 1010.85 1010.20 1010.64 1011.39 1011.56 1011.52 1011.26 1011.12 1010.68 1010.16 1009.70 1009.16 1008.60 1008.41 1008.16 1007.86 1007.48 1007.06 1006.51 1005.79 1004.90 1004.00 1003.22 1002.48 1001.74 1001.36 1001.30 1001.33 1001.48 1002.12 1002.54
1019.37 1019.01 1018.36 1017.85 1017.08 1017.19 1016.89 1016.83 1016.87 1016.94 1017.07 1016.63 1015.60 1011.27 1010.97 1011.41 1011.56 1011.53 1011.45 1011.23 1011.10 1010.82 1010.17 1009.58 1009.07 1008.64 1008.23 1007.88 1007.56 1007.09 1006.56 1005.99 1005.31 1004.55 1003.56 1002.39 1001.43 1000.78 1000.59 1000.54 1000.64 1000.88 1001.37 1002.21
1020.10 1019.98 1019.52 1018.51 1018.23 1017.85 1017.72 1017.66 1017.72 1018.08 1018.29 1017.08 1016.06 1011.34 1010.90 1010.85 1011.13 1010.99 1010.77 1010.94 1010.89 1010.53 1010.06 1009.46 1008.85 1008.30 1007.95 1007.69 1007.24 1006.84 1006.39 1005.68 1004.86 1003.95 1002.96 1001.69 1000.82 1000.23 999.98 999.76 999.83 1000.45 1001.31 1002.02
1020.55 1020.54 1019.99 1019.40 1018.94 1018.96 1018.65 1018.45 1018.65 1018.61 1018.44 1017.28 1015.57 1013.12 1009.78 1012.28 1011.82 1010.82 1010.46 1010.26 1010.45 1010.21 1009.61 1009.06 1008.61 1008.12 1007.64 1007.43 1007.06 1006.51 1006.02 1005.43 1004.62 1003.59 1002.79 1001.63 1000.44 999.86 999.46 999.39 999.55 1000.22 1000.96 1001.52
1021.04 1020.74 1020.45 1020.11 1019.88 1019.53 1019.15 1018.93 1018.70 1018.56 1018.16 1017.20 1015.73 1014.19 1010.91 1011.69 1011.30 1010.39 1010.27 1010.10 1009.96 1009.74 1009.36 1008.86 1008.23 1007.73 1007.41 1007.04 1006.62 1006.16 1005.75 1005.19 1004.47 1003.53 1002.57 1001.89 1000.73 999.92 999.45 999.12 999.40 999.67 1000.19 1000.97
1021.74 1021.33 1020.97 1020.43 1020.02 1019.45 1018.53 1018.45 1018.08 1017.54 1017.20 1016.30 1015.49 1013.23 1012.66 1010.49 1010.82 1010.48 1009.89 1009.84 1009.56 1009.11 1008.73 1008.26 1007.66 1007.29 1007.06 1006.69 1006.23 1005.80 1005.35 1004.78 1004.37 1003.67 1002.61 1001.74 1001.04 1000.35 1000.00 999.87 999.22 999.86 1000.15 1000.85
1022.19 1021.91 1021.54 1020.36 1019.83 1019.23 1017.57 1016.28 1016.14 1016.22 1016.02 1015.49 1014.78 1012.76 1011.04 1010.47 1010.03 1010.01 1009.32 1009.58 1009.17 1008.46 1008.03 1007.60 1007.16 1006.84 1006.61 1006.08 1005.73 1005.21 1004.81 1004.40 1003.99 1003.37 1002.53 1001.64 1000.95 1000.62 1000.24 1000.43 1000.36 1000.05 1000.51 1001.05
1021.77 1022.01 1022.10 1021.01 1020.28 1018.39 1015.82 1015.35 1015.13 1015.25 1014.58 1014.08 1013.40 1011.90 1011.17 1010.61 1010.03 1009.25 1009.21 1009.15 1008.47 1008.05 1007.53 1007.08 1006.86 1006.64 1006.13 1005.65 1005.18 1004.73 1004.47 1004.05 1003.57 1002.93 1002.19 1001.57 1000.86 1000.44 1000.42 1000.37 1000.49 1000.61 1000.93 1001.29
1021.23 1021.73 1021.71 1021.13 1019.84 1016.89 1015.35 1014.36 1014.28 1014.01 1012.50 1012.71 1011.91 1011.57 1011.25 1010.65 1010.08 1008.56 1008.60 1008.54 1008.07 1007.62 1007.21 1006.88 1006.57 1006.21 1005.61 1005.28 1004.59 1004.10 1003.80 1003.46 1003.03 1002.38 1001.70 1001.17 1000.75 1000.19 1000.19 999.97 1000.27 1000.25 1000.92 1001.53
1020.96 1021.29 1021.31 1020.79 1019.51 1016.69 1014.40 1014.08 1013.67 1013.28 1011.76 1011.87 1011.69 1011.36 1011.03 1010.71 1010.17 1007.92 1007.72 1008.05 1007.93 1007.44 1006.91 1006.39 1005.91 1005.42 1004.96 1004.29 1003.99 1003.53 1002.97 1002.62 1002.17 1001.55 1001.16 1000.75 1000.30 999.82 999.46 999.45 999.63 999.20 1000.06 1001.15
1020.73 1020.79 1020.32 1019.87 1018.84 1015.64 1013.84 1013.18 1013.53 1013.27 1012.05 1011.34 1011.25 1011.35 1011.35 1010.84 1010.01 1008.49 1007.77 1007.04 1007.23 1006.96 1006.34 1005.78 1005.27 1004.68 1004.01 1003.62 1003.33 1002.90 1002.28 1001.79 1001.33 1001.03 1000.58 1000.11 999.63 999.21 998.37 998.39 998.64 998.36 999.50 1000.16
1019.44 1019.77 1019.71 1019.21 1017.98 1015.71 1013.00 1013.09 1012.96 1011.86 1011.46 1011.23 1011.13 1010.87 1010.78 1010.08 1009.28 1008.42 1007.60 1007.06 1006.24 1005.84 1005.33 1005.17 1004.64 1003.71 1003.07 1003.00 1002.72 1002.08 1001.36 1000.87 1000.56 1000.43 1000.00 999.34 998.60 998.16 997.51 997.43 997.84 998.54 999.03 1000.31
1018.89 1018.29 1017.72 1017.20 1015.13 1013.62 1012.83 1012.72 1012.25 1012.12 1011.80 1010.88 1011.07 1010.09 1010.02 1009.40 1008.59 1007.75 1006.77 1006.29 1005.74 1005.17 1004.52 1004.17 1003.83 1003.05 1002.20 1001.98 1001.93 1001.35 1000.59 1000.45 1000.03 999.90 999.30 998.57 997.89 997.29 996.75 996.87 997.47 998.29 999.08 999.39
1017.96 1017.32 1016.65 1015.93 1014.43 1012.65 1012.22 1012.11 1012.01 1011.51 1011.39 1010.80 1010.40 1009.87 1009.22 1008.77 1007.83 1006.98 1006.04 1005.37 1004.97 1004.22 1003.65 1003.31 1002.90 1002.33 1001.52 1001.14 1000.93 1000.82 1000.26 1000.11 999.96 999.29 998.72 998.13 997.56 996.86 996.58 996.48 996.95 997.49 998.45 999.42
1017.10 1016.63 1015.59 1014.54 1013.60 1012.69 1011.99 1012.14 1011.49 1010.68 1010.82 1010.30 1009.63 1009.33 1008.43 1008.19 1006.97 1006.34 1005.30 1004.62 1004.14 1003.42 1002.79 1002.66 1002.15 1001.73 1000.94 1000.65 1000.31 1000.19 1000.01 999.99 999.46 998.89 998.35 997.91 997.57 997.07 996.91 996.68 996.94 997.28 997.77 997.85
1015.82 1014.96 1015.01 1013.24 1012.96 1012.63 1011.08 1011.29 1011.51 1010.84 1010.17 1009.79 1009.40 1008.25 1007.82 1007.82 1006.78 1005.65 1004.51 1003.65 1003.19 1002.64 1002.14 1001.77 1001.46 1001.25 1000.66 1000.48 1000.05 1000.05 1000.04 999.79 999.19 998.67 998.29 998.06 997.65 997.52 997.41 997.41 997.82 998.07 998.36 998.63
Thickness
5661 5655 5659 5663 5667 5669 5666 5666 5666 5671 5683 5682 5690 5703 5707 5725 5730 5734 5738 5732 5734 5739 5757 5764 5765 5766 5764 5765 5763 5766 5761 5762 5751 5746 5744 5739 5740 5732 5729 5729 5728 5725 5721 5715
5643 5647 5657 5659 5657 5658 5655 5652 5658 5665 5672 5673 5678 5697 5711 5715 5728 5734 5735 5736 5734 5737 5743 5749 5748 5750 5755 5759 5763 5765 5765 5759 5753 5750 5746 5740 5736 5737 5733 5731 5730 5726 5721 5716
5638 5643 5648 5645 5644 5643 5645 5645 5650 5648 5656 5665 5663 5685 5713 5710 5715 5724 5721 5724 5729 5729 5727 5730 5734 5737 5741 5747 5752 5756 5760 5757 5752 5745 5737 5733 5732 5731 5732 5734 5732 5730 5723 5720
5623 5632 5632 5631 5633 5636 5628 5644 5641 5639 5633 5637 5652 5656 5697 5704 5706 5706 5712 5716 5711 5712 5713 5712 5718 5725 5731 5734 5741 5749 5751 5751 5750 5746 5740 5735 5734 5732 5741 5733 5732 5729 5723 5719
5615 5616 5617 5620 5625 5629 5627 5634 5632 5630 5626 5625 5636 5626 5692 5692 5697 5703 5698 5695 5693 5695 5698 5700 5702 5708 5716 5722 5725 5731 5739 5742 5743 5743 5741 5738 5734 5743 5742 5737 5734 5731 5728 5722
5605 5610 5613 5615 5618 5619 5618 5617 5616 5617 5617 5608 5629 5625 5694 5682 5684 5679 5680 5674 5677 5679 5684 5686 5688 5693 5697 5704 5711 5717 5723 5730 5732 5734 5736 5738 5738 5740 5739 5742 5740 5735 5729 5724
5591 5593 5601 5602 5601 5607 5605 5602 5590 5585 5586 5606 5626 5622 5671 5673 5671 5665 5660 5659 5657 5663 5666 5670 5674 5678 5682 5686 5693 5699 5706 5714 5720 5722 5726 5731 5736 5737 5737 5739 5739 5736 5731 5729
5574 5573 5584 5593 5593 5594 5593 5592 5583 5576 5586 5596 5601 5616 5651 5660 5652 5646 5640 5639 5646 5651 5653 5656 5660 5661 5669 5674 5680 5683 5688 5696 5706 5713 5716 5721 5728 5732 5736 5737 5740 5738 5737 5734
5562 5563 5574 5582 5587 5589 5581 5579 5589 5575 5567 5570 5594 5623 5645 5653 5637 5627 5622 5622 5624 5630 5633 5638 5646 5650 5652 5659 5667 5670 5675 5680 5687 5698 5705 5713 5718 5724 5733 5736 5736 5736 5734 5731
5550 5554 5560 5568 5575 5577 5578 5578 5566 5562 5554 5558 5587 5597 5622 5630 5614 5609 5608 5607 5608 5608 5615 5623 5629 5635 5639 5643 5650 5654 5659 5664 5672 5680 5688 5698 5708 5716 5723 5724 5733 5732 5728 5723
5537 5544 5549 5556 5558 5554 5558 5560 5559 5560 5554 5553 5562 5602 5615 5606 5598 5595 5595 5591 5586 5590 5599 5606 5615 5624 5626 5630 5634 5639 5643 5648 5657 5667 5679 5687 5695 5704 5714 5716 5720 5723 5720 5718
5521 5525 5531 5536 5546 5541 5546 5545 5546 5542 5543 5538 5539 5587 5597 5589 5589 5585 5581 5576 5575 5578 5585 5592 5600 5605 5611 5615 5618 5623 5630 5638 5645 5655 5665 5677 5688 5694 5703 5706 5709 5713 5711 5707
5511 5509 5515 5533 5535 5535 5533 5535 5534 5523 5511 5525 5530 5580 5589 5590 5580 5578 5574 5569 5564 5566 5573 5579 5586 5593 5597 5600 5605 5609 5614 5621 5632 5644 5653 5666 5675 5682 5691 5697 5698 5699 5697 5692
5502 5497 5510 5520 5523 5518 5520 5520 5516 5514 5507 5519 5529 5551 5591 5559 5554 5565 5569 5566 5557 5555 5561 5567 5573 5578 5582 5585 5591 5597 5602 5607 5616 5627 5635 5648 5661 5669 5681 5685 5685 5683 5682 5680
5491 5490 5496 5499 5498 5501 5502 5503 5506 5500 5503 5503 5519 5527 5564 5547 5546 5556 5558 5557 5552 5549 5549 5552 5557 5562 5566 5571 5577 5583 5588 5594 5602 5610 5619 5625 5640 5650 5662 5669 5671 5672 5671 5669
5472 5472 5478 5481 5488 5490 5494 5495 5497 5502 5502 5503 5504 5520 5526 5550 5538 5537 5544 5540 5539 5542 5541 5540 5544 5547 5550 5555 5561 5567 5574 5581 5585 5593 5603 5611 5621 5629 5637 5646 5657 5654 5655 5651
5457 5461 5462 5469 5482 5482 5483 5501 5498 5496 5494 5493 5487 5509 5529 5532 5531 5525 5537 5525 5521 5527 5528 5530 5530 5534 5536 5540 5545 5551 5559 5566 5572 5578 5587 5597 5605 5611 5618 5624 5628 5636 5635 5635
5455 5452 5443 5449 5460 5458 5508 5503 5499 5491 5496 5491 5489 5505 5508 5510 5514 5528 5525 5507 5513 5514 5517 5518 5516 5517 5521 5525 5531 5536 5542 5549 5556 5563 5572 5581 5591 5597 5603 5608 5612 5615 5616 5617
5450 5444 5439 5439 5449 5488 5503 5498 5491 5484 5503 5494 5490 5491 5491 5491 5490 5518 5510 5498 5500 5503 5505 5504 5505 5504 5508 5510 5517 5523 5527 5533 5539 5548 5558 5565 5574 5584 5587 5595 5597 5600 5598 5599
5437 5436 5434 5434 5438 5456 5497 5491 5482 5476 5485 5487 5484 5479 5478 5477 5467 5501 5501 5492 5488 5491 5494 5496 5498 5497 5499 5505 5506 5509 5514 5518 5524 5535 5543 5551 5559 5571 5579 5582 5584 5595 5591 5584
5429 5424 5426 5428 5426 5468 5493 5488 5466 5452 5469 5480 5473 5467 5460 5458 5465 5477 5483 5488 5482 5480 5485 5489 5489 5492 5497 5498 5497 5498 5504 5508 5512 5519 5528 5538 5546 5556 5571 5577 5578 5581 5574 5574
5432 5419 5414 5419 5413 5430 5482 5473 5458 5464 5462 5466 5462 5459 5451 5456 5461 5468 5472 5473 5479 5478 5481 5480 5480 5490 5495 5491 5489 5493 5500 5502 5505 5506 5513 5525 5538 5547 5559 5565 5567 5563 5558 5552
5425 5433 5435 5437 5448 5464 5465 5454 5457 5450 5444 5455 5445 5455 5449 5447 5453 5460 5465 5465 5468 5470 5475 5474 5474 5482 5491 5490 5485 5487 5495 5492 5496 5497 5503 5513 5526 5540 5549 5552 5552 5548 5547 5550
5426 5428 5427 5430 5450 5465 5462 5457 5450 5449 5441 5443 5441 5441 5444 5439 5448 5449 5455 5458 5457 5464 5466 5468 5469 5473 5481 5483 5483 5480 5484 5482 5480 5487 5494 5502 5512 5526 5533 5540 5541 5540 5536 5536
5427 5423 5426 5433 5443 5446 5451 5442 5442 5447 5438 5438 5440 5435 5438 5432 5441 5442 5448 5451 5451 5456 5460 5457 5461 5464 5473 5473 5475 5474 5473 5469 5472 5478 5485 5492 5496 5505 5514 5523 5527 5529 5531 5534
5424 5426 5418 5437 5442 5436 5451 5444 5435 5435 5436 5434 5429 5436 5435 5424 5429 5436 5441 5445 5445 5447 5451 5452 5454 5455 5462 5462 5463 5460 5458 5458 5462 5470 5475 5479 5484 5487 5494 5501 5502 5504 5508 5512